Crosby, ND

7:42 PM CST on December 09, 2019 (GMT -0600)
Crosby

Weather History for KD50 - August, 2019

Change the Weather History Date:

Sunday, August 25, 2019

  Actual Average (KISN) Record (KISN)
Temperature  
Mean Temperature 68 °F 66 °F  
Max Temperature 80 °F 82 °F 101 °F (1952)
Min Temperature 55 °F 52 °F 35 °F (1934)
Degree Days  
Heating Degree Days 0 2  
Month to date heating degree days 31  
Since 1 June heating degree days 175  
Since 1 July heating degree days 55  
Cooling Degree Days 2 4  
Month to date cooling degree days 147  
Year to date cooling degree days 410  
Since 1 June cooling degree days 397  
Growing Degree Days 18 (Base 50)    
Moisture  
Dew Point 58 °F    
Average Humidity 78    
Maximum Humidity 100    
Minimum Humidity 42    
Precipitation  
Precipitation 0.00 in 0.04 in 1.76 in (1960)
Month to date precipitation 1.18  
Year to date precipitation 10.85  
Sea Level Pressure  
Sea Level Pressure 29.72 in    
Wind  
Wind Speed 6 mph (WNW)    
Max Wind Speed 22 mph    
Max Gust Speed 24 mph    
Visibility 9 miles    
Events Rain , Thunderstorm    
T = Trace of Precipitation, MM = Missing Value Source: NWS Daily Summary

Daily Weather History Graph

Daily Weather History Graph

Search for Another Location

Airport or City:

Astronomy

Aug. 25, 2019 Rise Set
Actual Time 6:59 AM CDT 8:49 PM CDT
Civil Twilight 6:26 AM CDT 9:23 PM CDT
Nautical Twilight 5:44 AM CDT 10:04 PM CDT
Astronomical Twilight 4:58 AM CDT 10:50 PM CDT
Moon 1:20 AM CDT (8/25) 5:31 PM CDT (8/25)
Length of Visible Light 14h 57m
Length of Day
13h 50m
Waning Crescent, 29% of the Moon is Illuminated
Aug 25
Waning Crescent
Aug 30
New
Sep 5
First Quarter
Sep 13
Full
Sep 21
Last Quarter

Hourly Weather History & Observations

Time (CDT) Temp. Heat Index Dew Point Humidity Pressure Visibility Wind Dir Wind Speed Gust Speed Precip Events Conditions
12:15 AM 64.4 °F - 64.4 °F 100% 29.71 in 10.0 mi Calm Calm - N/A   Scattered Clouds
12:35 AM 62.6 °F - 62.6 °F 100% 29.70 in 10.0 mi Calm Calm - N/A   Clear
12:55 AM 62.6 °F - 62.6 °F 100% 29.71 in 10.0 mi Calm Calm - N/A   Clear
1:15 AM 62.6 °F - 62.6 °F 100% 29.71 in 10.0 mi North 4.6 mph - N/A   Clear
1:35 AM 62.6 °F - 62.6 °F 100% 29.71 in 10.0 mi NNW 5.8 mph - N/A   Mostly Cloudy
1:55 AM 60.8 °F - 60.8 °F 100% 29.70 in 10.0 mi Calm Calm - N/A   Overcast
2:15 AM 60.8 °F - 60.8 °F 100% 29.69 in 10.0 mi Calm Calm - N/A   Mostly Cloudy
2:35 AM 59.0 °F - 59.0 °F 100% 29.69 in 10.0 mi North 3.5 mph - N/A   Scattered Clouds
2:55 AM 59.0 °F - 59.0 °F 100% 29.69 in 10.0 mi Calm Calm - N/A   Clear
3:15 AM 57.2 °F - 57.2 °F 100% 29.68 in 10.0 mi Calm Calm - N/A   Clear
3:35 AM 57.2 °F - 57.2 °F 100% 29.68 in 7.0 mi Calm Calm - N/A   Clear
3:55 AM 57.2 °F - 57.2 °F 100% 29.68 in 8.0 mi Calm Calm - N/A   Clear
4:15 AM - - - N/A% 29.68 in 9.0 mi Calm Calm - N/A   Clear
4:35 AM 57.2 °F - 57.2 °F 100% 29.69 in 7.0 mi Calm Calm - N/A   Clear
4:55 AM 55.4 °F - 55.4 °F 100% 29.68 in 3.0 mi East 3.5 mph - N/A   Clear
5:15 AM 57.2 °F - 57.2 °F 100% 29.67 in 4.0 mi Calm Calm - N/A   Mostly Cloudy
5:35 AM 57.2 °F - 57.2 °F 100% 29.68 in 3.0 mi Calm Calm - N/A   Mostly Cloudy
5:55 AM 57.2 °F - 57.2 °F 100% 29.69 in 4.0 mi WSW 4.6 mph - N/A   Mostly Cloudy
6:15 AM 59.0 °F - 59.0 °F 100% 29.70 in 4.0 mi WNW 6.9 mph - N/A Thunderstorm Overcast
6:35 AM 59.0 °F - 59.0 °F 100% 29.71 in 4.0 mi WNW 5.8 mph - N/A   Overcast
6:55 AM 59.0 °F - 59.0 °F 100% 29.72 in 4.0 mi WNW 5.8 mph - N/A   Overcast
7:15 AM 59.0 °F - 59.0 °F 100% 29.73 in 2.5 mi WNW 9.2 mph - N/A Thunderstorm Overcast
7:35 AM 60.8 °F - 60.8 °F 100% 29.73 in 4.0 mi WNW 5.8 mph 11.5 mph N/A Thunderstorm Overcast
7:55 AM 60.8 °F - 60.8 °F 100% 29.74 in 3.0 mi Calm Calm - N/A   Light Drizzle
8:15 AM 60.8 °F - 60.8 °F 100% 29.74 in 5.0 mi WSW 6.9 mph - N/A   Mostly Cloudy
8:35 AM 60.8 °F - 60.8 °F 100% 29.73 in 9.0 mi West 6.9 mph - N/A   Partly Cloudy
8:55 AM 60.8 °F - 60.8 °F 100% 29.72 in 4.0 mi South 4.6 mph - N/A Rain Light Rain
9:15 AM 60.8 °F - 60.8 °F 100% 29.68 in 8.0 mi East 5.8 mph - N/A   Mostly Cloudy
9:35 AM 62.6 °F - 62.6 °F 100% 29.68 in 10.0 mi Calm Calm - N/A   Mostly Cloudy
9:55 AM 62.6 °F - 62.6 °F 100% 29.68 in 9.0 mi SSE 4.6 mph - N/A   Scattered Clouds
10:15 AM 64.4 °F - 64.4 °F 100% 29.69 in 10.0 mi Calm Calm - N/A   Partly Cloudy
10:35 AM 66.2 °F - 66.2 °F 100% 29.70 in 10.0 mi NW 5.8 mph - N/A   Clear
10:55 AM 68.0 °F - 66.2 °F 94% 29.70 in 10.0 mi WNW 9.2 mph - N/A   Clear
11:15 AM 71.6 °F - 62.6 °F 73% 29.70 in 10.0 mi WNW 6.9 mph - N/A   Clear
11:35 AM 75.2 °F - 55.4 °F 50% 29.70 in 10.0 mi West 8.1 mph - N/A   Clear
11:55 AM 75.2 °F - 53.6 °F 47% 29.70 in 10.0 mi WNW 8.1 mph - N/A   Clear
12:15 PM 78.8 °F - 53.6 °F 42% 29.70 in 10.0 mi West 10.4 mph - N/A   Clear
12:35 PM 77.0 °F - 53.6 °F 44% 29.70 in 10.0 mi West 10.4 mph - N/A   Clear
12:55 PM 78.8 °F - 55.4 °F 44% 29.69 in 10.0 mi West 9.2 mph 16.1 mph N/A   Clear
1:15 PM 78.8 °F - 53.6 °F 42% 29.69 in 10.0 mi West 13.8 mph - N/A   Clear
1:35 PM 77.0 °F - 55.4 °F 47% 29.69 in 10.0 mi West 17.3 mph - N/A   Clear
1:55 PM 80.6 °F 80.5 °F 55.4 °F 42% 29.69 in 10.0 mi West 9.2 mph 21.9 mph N/A   Scattered Clouds
2:15 PM 78.8 °F - 57.2 °F 47% 29.70 in 10.0 mi West 15.0 mph 23.0 mph N/A   Scattered Clouds
2:35 PM 78.8 °F - 57.2 °F 47% 29.70 in 10.0 mi West 13.8 mph - N/A   Scattered Clouds
2:55 PM 77.0 °F - 57.2 °F 50% 29.69 in 10.0 mi West 17.3 mph - N/A   Partly Cloudy
3:15 PM 77.0 °F - 57.2 °F 50% 29.69 in 10.0 mi West 17.3 mph 23.0 mph N/A   Partly Cloudy
3:35 PM 78.8 °F - 55.4 °F 44% 29.70 in 10.0 mi WNW 17.3 mph - N/A   Clear
3:55 PM 78.8 °F - 55.4 °F 44% 29.70 in 10.0 mi WNW 17.3 mph - N/A   Scattered Clouds
4:15 PM 78.8 °F - 57.2 °F 47% 29.70 in 10.0 mi West 19.6 mph - N/A   Scattered Clouds
4:35 PM 77.0 °F - 57.2 °F 50% 29.71 in 10.0 mi WNW 18.4 mph 24.2 mph N/A   Scattered Clouds
4:55 PM 75.2 °F - 55.4 °F 50% 29.71 in 10.0 mi NW 21.9 mph - N/A   Partly Cloudy
5:15 PM 75.2 °F - 53.6 °F 47% 29.71 in 10.0 mi WNW 18.4 mph - N/A   Clear
5:35 PM 75.2 °F - 51.8 °F 44% 29.71 in 10.0 mi WNW 18.4 mph - N/A   Clear
5:55 PM 75.2 °F - 53.6 °F 47% 29.71 in 10.0 mi WNW 15.0 mph - N/A   Partly Cloudy
6:15 PM 73.4 °F - 53.6 °F 50% 29.72 in 9.0 mi NW 13.8 mph 19.6 mph N/A   Mostly Cloudy
6:35 PM 73.4 °F - 50.0 °F 44% 29.72 in 10.0 mi NW 16.1 mph 23.0 mph N/A   Scattered Clouds
6:55 PM 71.6 °F - 51.8 °F 50% 29.72 in 10.0 mi NW 12.7 mph 18.4 mph N/A   Partly Cloudy
7:15 PM 69.8 °F - 51.8 °F 53% 29.73 in 10.0 mi NW 17.3 mph - N/A   Clear
7:55 PM 69.8 °F - 51.8 °F 53% 29.73 in 10.0 mi NW 16.1 mph - N/A   Clear
8:15 PM 68.0 °F - 51.8 °F 56% 29.73 in 10.0 mi NW 15.0 mph - N/A   Clear
8:35 PM 66.2 °F - 51.8 °F 60% 29.74 in 10.0 mi NW 12.7 mph - N/A   Clear
8:55 PM 64.4 °F - 53.6 °F 68% 29.75 in 10.0 mi NW 11.5 mph - N/A   Clear
9:15 PM 64.4 °F - 55.4 °F 73% 29.77 in 10.0 mi NW 11.5 mph - N/A   Clear
9:35 PM 62.6 °F - 55.4 °F 77% 29.78 in 10.0 mi NW 10.4 mph - N/A   Partly Cloudy
9:55 PM 60.8 °F - 57.2 °F 88% 29.79 in 10.0 mi WNW 9.2 mph - N/A   Partly Cloudy
10:15 PM 60.8 °F - 57.2 °F 88% 29.80 in 10.0 mi NW 6.9 mph - N/A   Clear
10:35 PM 59.0 °F - 57.2 °F 94% 29.80 in 10.0 mi WNW 6.9 mph - N/A   Clear
10:55 PM 57.2 °F - 57.2 °F 100% 29.81 in 10.0 mi West 6.9 mph - N/A   Clear
11:15 PM 57.2 °F - 57.2 °F 100% 29.81 in 10.0 mi West 8.1 mph - N/A   Partly Cloudy
11:35 PM 57.2 °F - 57.2 °F 100% 29.81 in 10.0 mi West 6.9 mph - N/A   Mostly Cloudy
11:55 PM 59.0 °F - 57.2 °F 94% 29.81 in 10.0 mi WNW 8.1 mph - N/A   Mostly Cloudy